| time (UTC) | temp F | wind direction | speed MPH | gust MPH | rain 1hr in | rain 24hr in | rain mn in | humidity % | barometer mb |
| 20260507180039 | 62 | 231 | 3.0 | 10.0 | 0.00 | 0.32 | 0.15 | 46 | 1008.9 |
| 20260507174554 | 61 | 145 | 3.0 | 11.0 | 0.00 | 0.32 | 0.15 | 49 | 1009.1 |
| 20260507173039 | 61 | 189 | 4.0 | 11.0 | 0.00 | 0.32 | 0.15 | 48 | 1009.5 |
| 20260507171540 | 60 | 143 | 1.0 | 9.0 | 0.00 | 0.32 | 0.15 | 49 | 1009.7 |
| 20260507170045 | 60 | 132 | 3.0 | 10.0 | 0.00 | 0.32 | 0.15 | 51 | 1010.0 |
| 20260507164539 | 59 | 167 | 6.0 | 12.0 | 0.00 | 0.35 | 0.15 | 48 | 1010.3 |
| 20260507163043 | 58 | 153 | 6.0 | 13.0 | 0.00 | 0.35 | 0.15 | 49 | 1010.5 |
| 20260507161550 | 58 | 196 | 4.0 | 13.0 | 0.00 | 0.35 | 0.15 | 51 | 1010.7 |
| 20260507160046 | 58 | 167 | 6.0 | 10.0 | 0.00 | 0.35 | 0.15 | 52 | 1010.7 |
| 20260507154543 | 57 | 181 | 5.0 | 11.0 | 0.00 | 0.43 | 0.15 | 49 | 1010.9 |
| 20260507153101 | 57 | 145 | 6.0 | 12.0 | 0.00 | 0.43 | 0.15 | 53 | 1010.9 |
| 20260507151546 | 57 | 140 | 5.0 | 10.0 | 0.00 | 0.43 | 0.15 | 56 | 1011.2 |
| 20260507150046 | 56 | 141 | 3.0 | 7.0 | 0.00 | 0.43 | 0.15 | 62 | 1011.4 |
| 20260507144551 | 55 | 153 | 5.0 | 9.0 | 0.00 | 0.48 | 0.15 | 60 | 1011.5 |
| 20260507143041 | 55 | 158 | 5.0 | 12.0 | 0.00 | 0.48 | 0.15 | 68 | 1011.6 |
| 20260507141538 | 54 | 155 | 4.0 | 11.0 | 0.00 | 0.48 | 0.15 | 68 | 1011.7 |
| 20260507140037 | 53 | 206 | 4.0 | 10.0 | 0.00 | 0.48 | 0.15 | 68 | 1011.7 |
| 20260507134541 | 53 | 150 | 5.0 | 12.0 | 0.00 | 0.48 | 0.15 | 69 | 1011.8 |
| 20260507133041 | 52 | 139 | 4.0 | 9.0 | 0.00 | 0.48 | 0.15 | 73 | 1011.9 |
| 20260507131540 | 51 | 158 | 3.0 | 8.0 | 0.00 | 0.48 | 0.15 | 76 | 1012.0 |
| 20260507130055 | 51 | 134 | 3.0 | 8.0 | 0.00 | 0.48 | 0.15 | 80 | 1011.8 |
| 20260507124554 | 51 | 150 | 3.0 | 8.0 | 0.00 | 0.48 | 0.15 | 82 | 1011.9 |
| 20260507123043 | 50 | 137 | 3.0 | 6.0 | 0.00 | 0.48 | 0.15 | 87 | 1011.8 |
| 20260507121547 | 51 | 129 | 2.0 | 5.0 | 0.00 | 0.48 | 0.15 | 91 | 1011.8 |
| 20260507120040 | 50 | 137 | 2.0 | 6.0 | 0.00 | 0.48 | 0.15 | 93 | 1011.6 |
| 20260507114550 | 50 | 149 | 2.0 | 5.0 | 0.00 | 0.48 | 0.15 | 93 | 1011.5 |
| 20260507113043 | 50 | 0 | 0.0 | 2.0 | 0.00 | 0.48 | 0.15 | 94 | 1011.5 |
| 20260507111542 | 50 | 128 | 0.0 | 2.0 | 0.00 | 0.48 | 0.15 | 94 | 1011.5 |
| 20260507110039 | 49 | 128 | 0.0 | 2.0 | 0.00 | 0.48 | 0.15 | 94 | 1011.4 |
| 20260507104540 | 49 | 128 | 0.0 | 1.0 | 0.00 | 0.48 | 0.15 | 94 | 1011.1 |
| 20260507103034 | 49 | 128 | 0.0 | 1.0 | 0.00 | 0.48 | 0.15 | 93 | 1011.0 |
| 20260507101553 | 49 | 0 | 0.0 | 2.0 | 0.00 | 0.48 | 0.15 | 93 | 1010.7 |
| 20260507100054 | 49 | 0 | 0.0 | 1.0 | 0.00 | 0.48 | 0.15 | 93 | 1010.6 |
| 20260507094538 | 49 | 0 | 0.0 | 1.0 | 0.00 | 0.48 | 0.15 | 93 | 1010.4 |
| 20260507093040 | 49 | 0 | 0.0 | 2.0 | 0.00 | 0.48 | 0.15 | 93 | 1010.4 |
| 20260507091537 | 50 | 0 | 0.0 | 2.0 | 0.00 | 0.48 | 0.15 | 92 | 1010.2 |
| 20260507090034 | 49 | 0 | 0.0 | 2.0 | 0.00 | 0.48 | 0.15 | 92 | 1010.0 |
| 20260507084546 | 49 | 0 | 0.0 | 3.0 | 0.01 | 0.48 | 0.15 | 92 | 1009.9 |
| 20260507083051 | 49 | 156 | 2.0 | 3.0 | 0.01 | 0.48 | 0.15 | 92 | 1009.6 |
| 20260507081540 | 49 | 0 | 0.0 | 2.0 | 0.02 | 0.48 | 0.15 | 91 | 1009.8 |
| 20260507080049 | 49 | 156 | 1.0 | 4.0 | 0.03 | 0.48 | 0.15 | 91 | 1009.9 |
| 20260507074542 | 49 | 0 | 0.0 | 5.0 | 0.03 | 0.47 | 0.14 | 90 | 1010.2 |
| 20260507073053 | 50 | 162 | 2.0 | 6.0 | 0.06 | 0.47 | 0.14 | 90 | 1010.1 |
| 20260507071542 | 50 | 176 | 3.0 | 7.0 | 0.07 | 0.46 | 0.13 | 91 | 1010.6 |
| 20260507070041 | 50 | 158 | 4.0 | 8.0 | 0.07 | 0.45 | 0.12 | 91 | 1010.7 |
| 20260507064542 | 50 | 146 | 3.0 | 10.0 | 0.08 | 0.44 | 0.11 | 91 | 1011.0 |
| 20260507063046 | 51 | 146 | 5.0 | 9.0 | 0.06 | 0.41 | 0.08 | 91 | 1010.4 |
| 20260507061537 | 51 | 145 | 2.0 | 6.0 | 0.04 | 0.39 | 0.06 | 91 | 1010.5 |
| 20260507060042 | 51 | 155 | 4.0 | 8.0 | 0.03 | 0.38 | 0.05 | 90 | 1010.2 |
| 20260507054543 | 52 | 134 | 6.0 | 13.0 | 0.02 | 0.36 | 0.03 | 89 | 1010.6 |
| 20260507053037 | 53 | 141 | 7.0 | 15.0 | 0.02 | 0.35 | 0.02 | 89 | 1010.3 |
| 20260507051539 | 54 | 171 | 6.0 | 11.0 | 0.02 | 0.35 | 0.02 | 90 | 1010.3 |
| 20260507050040 | 55 | 157 | 4.0 | 8.0 | 0.02 | 0.35 | 0.02 | 91 | 1009.9 |
| 20260507044540 | 56 | 141 | 3.0 | 7.0 | 0.02 | 0.34 | 0.01 | 91 | 1009.6 |
| 20260507043043 | 56 | 151 | 4.0 | 7.0 | 0.01 | 0.33 | 0.00 | 90 | 1009.6 |
| 20260507041546 | 57 | 166 | 3.0 | 7.0 | 0.01 | 0.33 | 0.00 | 90 | 1009.2 |
| 20260507040040 | 57 | 167 | 4.0 | 12.0 | 0.01 | 0.33 | 0.00 | 90 | 1008.9 |
| 20260507034539 | 59 | 134 | 2.0 | 4.0 | 0.00 | 0.32 | 0.32 | 92 | 1009.4 |
| 20260507033044 | 59 | 0 | 0.0 | 2.0 | 0.00 | 0.32 | 0.32 | 91 | 1009.2 |
| 20260507031538 | 59 | 0 | 0.0 | 4.0 | 0.00 | 0.32 | 0.32 | 91 | 1009.2 |
| 20260507030041 | 59 | 134 | 1.0 | 4.0 | 0.00 | 0.32 | 0.32 | 90 | 1009.0 |
| 20260507024537 | 60 | 115 | 1.0 | 4.0 | 0.12 | 0.32 | 0.32 | 89 | 1009.0 |
| 20260507023044 | 61 | 127 | 2.0 | 8.0 | 0.16 | 0.32 | 0.32 | 89 | 1009.1 |
| 20260507021538 | 62 | 134 | 3.0 | 10.0 | 0.16 | 0.32 | 0.32 | 90 | 1008.9 |
| 20260507020057 | 63 | 134 | 1.0 | 8.0 | 0.16 | 0.32 | 0.32 | 89 | 1008.9 |
| 20260507014544 | 64 | 124 | 4.0 | 8.0 | 0.03 | 0.19 | 0.19 | 86 | 1009.4 |
| 20260507013038 | 65 | 108 | 1.0 | 4.0 | 0.00 | 0.16 | 0.16 | 84 | 1008.6 |
| 20260507011542 | 65 | 112 | 1.0 | 4.0 | 0.00 | 0.16 | 0.16 | 84 | 1008.7 |
| 20260507010043 | 65 | 107 | 1.0 | 5.0 | 0.00 | 0.16 | 0.16 | 84 | 1008.4 |
| 20260507004543 | 65 | 105 | 1.0 | 5.0 | 0.00 | 0.16 | 0.16 | 84 | 1008.5 |
| 20260507003039 | 65 | 112 | 1.0 | 6.0 | 0.00 | 0.16 | 0.16 | 84 | 1008.2 |
| 20260507001546 | 65 | 113 | 0.0 | 3.0 | 0.00 | 0.16 | 0.16 | 83 | 1007.9 |
| 20260507000044 | 65 | 0 | 1.0 | 4.0 | 0.00 | 0.16 | 0.16 | 82 | 1007.7 |
| 20260506234550 | 66 | 113 | 2.0 | 5.0 | 0.00 | 0.16 | 0.16 | 82 | 1007.7 |
| 20260506233038 | 66 | 129 | 1.0 | 8.0 | 0.00 | 0.16 | 0.16 | 81 | 1007.8 |
| 20260506231546 | 66 | 105 | 0.0 | 4.0 | 0.00 | 0.16 | 0.16 | 80 | 1007.9 |
| 20260506230052 | 67 | 120 | 1.0 | 7.0 | 0.00 | 0.16 | 0.16 | 80 | 1007.7 |
| 20260506224548 | 67 | 109 | 1.0 | 5.0 | 0.00 | 0.16 | 0.16 | 80 | 1007.9 |
| 20260506223051 | 67 | 109 | 2.0 | 7.0 | 0.00 | 0.16 | 0.16 | 80 | 1007.6 |
| 20260506221540 | 67 | 98 | 3.0 | 10.0 | 0.00 | 0.16 | 0.16 | 79 | 1007.6 |
| 20260506220039 | 68 | 134 | 2.0 | 8.0 | 0.00 | 0.16 | 0.16 | 79 | 1007.5 |
| 20260506214544 | 68 | 89 | 2.0 | 5.0 | 0.00 | 0.16 | 0.16 | 78 | 1007.5 |
| 20260506213101 | 67 | 76 | 2.0 | 8.0 | 0.00 | 0.16 | 0.16 | 81 | 1007.2 |
| 20260506211603 | 66 | 114 | 2.0 | 9.0 | 0.00 | 0.16 | 0.16 | 81 | 1007.1 |
| 20260506210040 | 66 | 118 | 4.0 | 12.0 | 0.00 | 0.16 | 0.16 | 81 | 1007.2 |
| 20260506204554 | 66 | 117 | 2.0 | 8.0 | 0.00 | 0.16 | 0.16 | 83 | 1007.3 |
| 20260506203047 | 65 | 113 | 2.0 | 8.0 | 0.00 | 0.16 | 0.16 | 84 | 1007.1 |
| 20260506201555 | 64 | 125 | 0.0 | 7.0 | 0.00 | 0.16 | 0.16 | 85 | 1007.1 |
| 20260506200038 | 64 | 86 | 3.0 | 8.0 | 0.00 | 0.16 | 0.16 | 85 | 1007.2 |
| 20260506194557 | 63 | 0 | 3.0 | 9.0 | 0.00 | 0.16 | 0.16 | 86 | 1007.4 |
| 20260506193044 | 63 | 86 | 2.0 | 8.0 | 0.00 | 0.16 | 0.16 | 86 | 1007.7 |
| 20260506191548 | 62 | 0 | 4.0 | 12.0 | 0.00 | 0.16 | 0.16 | 87 | 1007.7 |
| 20260506190043 | 62 | 66 | 3.0 | 11.0 | 0.00 | 0.16 | 0.16 | 87 | 1007.8 |
| 20260506184539 | 62 | 82 | 3.0 | 9.0 | 0.00 | 0.16 | 0.16 | 88 | 1007.9 |
| 20260506183055 | 62 | 67 | 2.0 | 11.0 | 0.00 | 0.16 | 0.16 | 88 | 1008.1 |
| 20260506181539 | 61 | 114 | 3.0 | 11.0 | 0.00 | 0.16 | 0.16 | 89 | 1008.3 |